Weather History for Hill City, KS

Change the Weather History Date:

Thursday, October 18, 2012

  Actual Average Record
Temperature  
Mean Temperature 51 °F 53 °F  
Max Temperature 61 °F 67 °F 93 °F (2003)
Min Temperature 41 °F 39 °F 26 °F (1948)
Degree Days  
Heating Degree Days 12    
Growing Degree Days 2 (Base 50)    
Moisture  
Dew Point 17 °F    
Average Humidity 24    
Maximum Humidity 42    
Minimum Humidity 16    
Precipitation  
Precipitation 0.00 in 0.05 in 0.26 in (2013)
Month to date precipitation 1.01 0.96  
Year to date precipitation 9.72 20.72  
Sea Level Pressure  
Sea Level Pressure 29.88 in    
Wind  
Wind Speed 23 mph (NW)    
Max Wind Speed 38 mph    
Max Gust Speed 58 mph    
Visibility 6 miles    
Events      
T = Trace of Precipitation, MM = Missing Value Source: NWS Daily Summary

Daily Weather History Graph

Daily Weather History Graph

Search for Another Location

Airport:

Trip Planner

Search our weather history database for the weather conditions in past years. The results will help you decide how hot, cold, wet, or windy it might be!

Date:

Astronomy

Oct. 18, 2012 Rise Set
Actual Time 7:52 AM CDT 6:55 PM CDT
Civil Twilight 7:25 AM CDT 7:22 PM CDT
Nautical Twilight 6:54 AM CDT 7:53 PM CDT
Astronomical Twilight 6:23 AM CDT 8:24 PM CDT
Moon 11:35 AM CDT (10/18) 9:32 PM CDT (10/18)
Length of Visible Light 11h 56m
Length of Day
11h 02m
Waxing Crescent, 14% of the Moon is Illuminated
Oct 18
Waxing Crescent
Oct 21
First Quarter
Oct 29
Full
Nov 6
Last Quarter
Nov 13
New

Hourly Weather History & Observations

Time (CDT) Temp. Windchill Dew Point Humidity Pressure Visibility Wind Dir Wind Speed Gust Speed Precip Events Conditions
12:53 AM 50.0 °F - 21.9 °F 33% 29.86 in 10.0 mi WNW 15.0 mph - N/A   Mostly Cloudy
1:53 AM 48.9 °F - 21.9 °F 35% 29.87 in 10.0 mi WNW 13.8 mph - N/A   Scattered Clouds
2:53 AM 48.9 °F - 21.9 °F 35% 29.88 in 10.0 mi NW 15.0 mph 27.6 mph N/A   Partly Cloudy
3:53 AM 46.9 °F - 21.0 °F 36% 29.88 in 10.0 mi WNW 13.8 mph 23.0 mph N/A   Clear
4:53 AM 44.1 °F 37.7 °F 21.9 °F 42% 29.88 in 10.0 mi West 12.7 mph - N/A   Clear
5:53 AM 46.0 °F 37.8 °F 21.0 °F 37% 29.88 in 10.0 mi WNW 23.0 mph 32.2 mph N/A   Clear
6:53 AM 46.9 °F - 19.0 °F 33% 29.89 in 10.0 mi WNW 24.2 mph 33.4 mph N/A   Clear
7:53 AM 46.0 °F 37.8 °F 18.0 °F 33% 29.89 in 10.0 mi WNW 23.0 mph 33.4 mph N/A   Clear
8:53 AM 48.0 °F - 18.0 °F 30% 29.89 in 10.0 mi WNW 27.6 mph 40.3 mph N/A   Clear
9:53 AM 51.1 °F - 18.0 °F 27% 29.89 in 9.0 mi NW 32.2 mph 49.5 mph N/A   Clear
10:53 AM 54.0 °F - 17.1 °F 23% 29.89 in 7.0 mi NW 31.1 mph 49.5 mph N/A   Overcast
11:53 AM 55.9 °F - 16.0 °F 21% 29.88 in 3.0 mi NW 31.1 mph 49.5 mph N/A   Haze
12:33 PM 57.2 °F - 15.8 °F 20% 29.88 in 2.5 mi NW 36.8 mph 54.1 mph N/A   Haze
12:53 PM 57.9 °F - 16.0 °F 19% 29.86 in 2.0 mi NW 36.8 mph 51.8 mph N/A   Haze
1:14 PM 57.2 °F - 15.8 °F 20% 29.87 in 1.8 mi NW 36.8 mph 52.9 mph N/A   Haze
1:25 PM 57.2 °F - 15.8 °F 20% 29.87 in 1.8 mi NW 38.0 mph 54.1 mph N/A   Haze
1:34 PM 57.2 °F - 15.8 °F 20% 29.86 in 2.0 mi NW 33.4 mph 49.5 mph N/A   Haze
1:53 PM 59.0 °F - 15.1 °F 18% 29.85 in 1.8 mi NW 38.0 mph 55.2 mph N/A   Haze
2:08 PM 59.0 °F - 15.8 °F 19% 29.85 in 2.0 mi NW 34.5 mph 57.5 mph N/A   Haze
2:50 PM 60.8 °F - 14.0 °F 16% 29.85 in 1.8 mi NW 38.0 mph 50.6 mph N/A   Haze
2:53 PM 60.1 °F - 15.1 °F 17% 29.83 in 2.0 mi NW 28.8 mph 50.6 mph N/A   Haze
3:31 PM 60.8 °F - 15.8 °F 17% 29.85 in 2.5 mi NNW 35.7 mph 49.5 mph N/A   Haze
3:53 PM 61.0 °F - 15.1 °F 17% 29.84 in 2.5 mi NW 29.9 mph 48.3 mph N/A   Haze
4:00 PM 60.8 °F - 15.8 °F 17% 29.85 in 3.0 mi NW 32.2 mph 46.0 mph N/A   Haze
4:53 PM 61.0 °F - 16.0 °F 17% 29.85 in 4.0 mi NW 29.9 mph 47.2 mph N/A   Haze
5:53 PM 60.1 °F - 16.0 °F 18% 29.86 in 6.0 mi NW 31.1 mph 41.4 mph N/A   Haze
6:53 PM 57.9 °F - 18.0 °F 21% 29.88 in 7.0 mi NW 17.3 mph 31.1 mph N/A   Overcast
7:53 PM 55.0 °F - 19.0 °F 24% 29.90 in 8.0 mi NW 16.1 mph 23.0 mph N/A   Overcast
8:06 PM 55.4 °F - 17.6 °F 23% 29.91 in 8.0 mi NW 16.1 mph 23.0 mph N/A   Overcast
8:53 PM 55.0 °F - 16.0 °F 22% 29.91 in 9.0 mi NW 19.6 mph 28.8 mph N/A   Overcast
9:15 PM 53.6 °F - 15.8 °F 22% 29.92 in 10.0 mi NW 20.7 mph 28.8 mph N/A   Overcast
9:40 PM 53.6 °F - 15.8 °F 22% 29.92 in 10.0 mi NW 17.3 mph 26.5 mph N/A   Scattered Clouds
9:53 PM 53.1 °F - 16.0 °F 23% 29.91 in 10.0 mi NW 17.3 mph - N/A   Clear
10:53 PM 50.0 °F - 15.1 °F 25% 29.92 in 10.0 mi WNW 13.8 mph - N/A   Clear
11:53 PM 46.9 °F - 14.0 °F 27% 29.92 in 10.0 mi WNW 12.7 mph - N/A   Clear